Location: Newark
(30.0333°N, 31.2167°E)
Time: 15:07:47
(UTC+00:00)

Tiros 1 despin weight - Pass Details

Date: 20 January 2020
Orbit: 594 x 642 km, 48.2° (Epoch: 24 February)

Event Time Altitude Azimuth Distance (km) Brightness Sun altitude
Rises 18:30:57 0° 301° (WNW) 2,938 ? -40.7°
Enters shadow 18:32:57 - 295° (WNW) 2,196 ? -41.2°
Reaches altitude 10° 18:33:26 10° 293° (WNW) 2,028 - -41.3°
Maximum altitude 18:37:40 34° 228° (SW) 1,043 - -42.2°
Drops below altitude 10° 18:41:52 10° 163° (SSE) 2,015 - -43.1°
Sets 18:44:20 0° 154° (SSE) 2,915 - -43.6°
